Location: Cargill Incorporated Elevator
(42.7294°N, 93.7333°W)
Time: 04:39:58
(UTC+00:00)

COSMOS 2406 - Pass Details

Date: 19 January 2026
Orbit: 843 x 861 km, 71.0° (Epoch: 15 February)

Event Time Altitude Azimuth Distance (km) Brightness Sun altitude
Exits shadow 12:34:40 - 332° (NNW) 2,973 5.6 -12.0°
Reaches altitude 10° 12:35:56 10° 331° (NNW) 2,497 5.2 -11.8°
Maximum altitude 12:41:38 69° 249° (WSW) 917 3.2 -10.8°
Drops below altitude 10° 12:47:19 10° 167° (SSE) 2,488 6.1 -9.8°
Sets 12:49:46 0° 165° (SSE) 3,421 6.9 -9.4°
